Time,TemperatureF,DewpointF,PressureIn,WindDirection,WindDirectionDegrees,WindSpeedMPH,WindSpeedGustMPH,Humidity,HourlyPrecipIn,Conditions,Clouds,dailyrainin,SolarRadiationWatts/m^2,SoftwareType,DateUTC
2013-07-17 00:00:00,59.5,53.6,30.05,SW,229,2.0,8.0,81,0.00,,,0.00,0001,Weather View 32 v70,2013-07-17 07:00:00,
2013-07-17 00:10:00,59.7,53.8,30.05,West,274,4.0,8.0,81,0.00,,,0.00,0002,Weather View 32 v70,2013-07-17 07:10:00,
2013-07-17 00:15:00,59.6,53.7,30.05,SSW,207,3.0,8.0,81,0.00,,,0.00,0001,Weather View 32 v70,2013-07-17 07:15:00,
2013-07-17 00:20:00,59.5,53.6,30.05,West,274,2.0,8.0,81,0.00,,,0.00,0002,Weather View 32 v70,2013-07-17 07:20:00,
2013-07-17 00:25:00,59.3,53.8,30.04,West,274,6.0,9.0,82,0.00,,,0.00,0001,Weather View 32 v70,2013-07-17 07:25:00,
2013-07-17 00:35:00,59.4,53.9,30.04,ESE,117,1.0,9.0,82,0.00,,,0.00,0002,Weather View 32 v70,2013-07-17 07:35:00,
2013-07-17 00:40:00,59.4,53.9,30.04,South,184,0.0,9.0,82,0.00,,,0.00,0001,Weather View 32 v70,2013-07-17 07:40:00,
2013-07-17 00:45:00,59.3,53.8,30.05,South,184,1.0,9.0,82,0.00,,,0.00,0001,Weather View 32 v70,2013-07-17 07:45:00,
2013-07-17 00:50:00,59.4,53.9,30.04,NE,49,1.0,9.0,82,0.00,,,0.00,0002,Weather View 32 v70,2013-07-17 07:50:00,
2013-07-17 00:55:00,59.3,53.8,30.04,NW,319,3.0,9.0,82,0.00,,,0.00,0001,Weather View 32 v70,2013-07-17 07:55:00,
2013-07-17 01:05:00,59.3,53.8,30.05,NW,319,2.0,9.0,82,0.00,,,0.00,0002,Weather View 32 v70,2013-07-17 08:05:00,
2013-07-17 01:10:00,59.1,53.6,30.05,WNW,297,3.0,9.0,82,0.00,,,0.00,0001,Weather View 32 v70,2013-07-17 08:10:00,
2013-07-17 01:15:00,59.2,53.7,30.05,West,274,1.0,9.0,82,0.00,,,0.00,0001,Weather View 32 v70,2013-07-17 08:15:00,
2013-07-17 01:20:00,59.0,53.5,30.05,SSW,207,4.0,9.0,82,0.00,,,0.00,0001,Weather View 32 v70,2013-07-17 08:20:00,
2013-07-17 01:30:00,58.8,53.6,30.04,SE,139,1.0,9.0,83,0.00,,,0.00,0001,Weather View 32 v70,2013-07-17 08:30:00,
2013-07-17 01:35:00,58.8,53.6,30.05,SW,229,2.0,9.0,83,0.00,,,0.00,0002,Weather View 32 v70,2013-07-17 08:35:00,
2013-07-17 01:40:00,58.7,53.5,30.05,NNW,342,3.0,9.0,83,0.00,,,0.00,0002,Weather View 32 v70,2013-07-17 08:40:00,
2013-07-17 01:45:00,58.8,53.6,30.05,SSE,162,1.0,9.0,83,0.00,,,0.00,0001,Weather View 32 v70,2013-07-17 08:45:00,
2013-07-17 01:50:00,58.7,53.5,30.05,West,274,4.0,9.0,83,0.00,,,0.00,0002,Weather View 32 v70,2013-07-17 08:50:00,
2013-07-17 02:00:00,58.7,53.5,30.05,WNW,297,4.0,9.0,83,0.00,,,0.00,0002,Weather View 32 v70,2013-07-17 09:00:00,
2013-07-17 02:05:00,58.8,53.6,30.05,South,184,1.0,9.0,83,0.00,,,0.00,0001,Weather View 32 v70,2013-07-17 09:05:00,
2013-07-17 02:10:00,58.9,53.7,30.05,WNW,297,0.0,9.0,83,0.00,,,0.00,0002,Weather View 32 v70,2013-07-17 09:10:00,
2013-07-17 02:20:00,58.8,53.6,30.05,WNW,297,3.0,10.0,83,0.00,,,0.00,0002,Weather View 32 v70,2013-07-17 09:20:00,
2013-07-17 02:25:00,58.8,53.6,30.05,West,274,3.0,10.0,83,0.00,,,0.00,0002,Weather View 32 v70,2013-07-17 09:25:00,
2013-07-17 02:30:00,58.7,53.5,30.05,South,184,0.0,10.0,83,0.00,,,0.00,0002,Weather View 32 v70,2013-07-17 09:30:00,
2013-07-17 02:35:00,58.6,53.4,30.05,WSW,252,1.0,11.0,83,0.00,,,0.00,0002,Weather View 32 v70,2013-07-17 09:35:00,
2013-07-17 02:45:00,58.6,53.4,30.05,NNW,342,3.0,11.0,83,0.00,,,0.00,0002,Weather View 32 v70,2013-07-17 09:45:00,
2013-07-17 02:50:00,58.6,53.4,30.05,WNW,297,2.0,11.0,83,0.00,,,0.00,0002,Weather View 32 v70,2013-07-17 09:50:00,
2013-07-17 02:55:00,58.7,53.5,30.05,SE,139,0.0,11.0,83,0.00,,,0.00,0001,Weather View 32 v70,2013-07-17 09:55:00,
2013-07-17 03:00:00,58.8,53.6,30.05,ESE,117,1.0,11.0,83,0.00,,,0.00,0002,Weather View 32 v70,2013-07-17 10:00:00,
2013-07-17 03:10:00,58.6,53.4,30.05,NW,319,3.0,11.0,83,0.00,,,0.00,0002,Weather View 32 v70,2013-07-17 10:10:00,
2013-07-17 03:15:00,58.7,53.5,30.05,SSW,207,2.0,11.0,83,0.00,,,0.00,0001,Weather View 32 v70,2013-07-17 10:15:00,
2013-07-17 03:20:00,58.6,53.4,30.05,WSW,252,0.0,11.0,83,0.00,,,0.00,0002,Weather View 32 v70,2013-07-17 10:20:00,
2013-07-17 03:25:00,58.6,53.4,30.05,North,4,1.0,11.0,83,0.00,,,0.00,0002,Weather View 32 v70,2013-07-17 10:25:00,
2013-07-17 03:30:00,58.4,53.2,30.05,West,274,3.0,11.0,83,0.00,,,0.00,0002,Weather View 32 v70,2013-07-17 10:30:00,
2013-07-17 03:40:00,58.5,53.3,30.05,WSW,252,1.0,7.0,83,0.00,,,0.00,0002,Weather View 32 v70,2013-07-17 10:40:00,
2013-07-17 03:45:00,58.4,53.2,30.05,North,4,2.0,7.0,83,0.00,,,0.00,0002,Weather View 32 v70,2013-07-17 10:45:00,
2013-07-17 03:50:00,58.3,53.1,30.05,West,274,1.0,7.0,83,0.00,,,0.00,0002,Weather View 32 v70,2013-07-17 10:50:00,
2013-07-17 03:55:00,58.3,53.5,30.05,ENE,72,2.0,7.0,84,0.00,,,0.00,0002,Weather View 32 v70,2013-07-17 10:55:00,
2013-07-17 04:00:00,58.3,53.5,30.05,SSW,207,1.0,7.0,84,0.00,,,0.00,0001,Weather View 32 v70,2013-07-17 11:00:00,
2013-07-17 04:10:00,58.2,53.4,30.05,West,274,3.0,7.0,84,0.00,,,0.00,0002,Weather View 32 v70,2013-07-17 11:10:00,
2013-07-17 04:15:00,58.2,53.4,30.05,SE,139,1.0,7.0,84,0.00,,,0.00,0002,Weather View 32 v70,2013-07-17 11:15:00,
2013-07-17 04:20:00,58.2,53.4,30.05,ESE,117,3.0,7.0,84,0.00,,,0.00,0002,Weather View 32 v70,2013-07-17 11:20:00,
2013-07-17 04:25:00,58.0,53.2,30.05,SSE,162,1.0,7.0,84,0.00,,,0.00,0002,Weather View 32 v70,2013-07-17 11:25:00,
2013-07-17 04:35:00,58.1,53.6,30.05,SSW,207,1.0,7.0,85,0.00,,,0.00,0001,Weather View 32 v70,2013-07-17 11:35:00,
2013-07-17 04:40:00,58.1,53.3,30.05,SSW,207,1.0,7.0,84,0.00,,,0.00,0002,Weather View 32 v70,2013-07-17 11:40:00,
2013-07-17 04:45:00,58.0,53.5,30.05,WSW,252,2.0,7.0,85,0.00,,,0.00,0002,Weather View 32 v70,2013-07-17 11:45:00,
2013-07-17 04:50:00,58.0,53.5,30.05,SSE,162,3.0,7.0,85,0.00,,,0.00,0001,Weather View 32 v70,2013-07-17 11:50:00,
2013-07-17 04:55:00,58.0,53.5,30.05,SSE,162,3.0,7.0,85,0.00,,,0.00,0002,Weather View 32 v70,2013-07-17 11:55:00,
2013-07-17 05:05:00,58.0,53.5,30.05,WNW,297,1.0,6.0,85,0.00,,,0.00,0002,Weather View 32 v70,2013-07-17 12:05:00,
2013-07-17 05:10:00,58.0,53.5,30.05,WNW,297,3.0,6.0,85,0.00,,,0.00,0001,Weather View 32 v70,2013-07-17 12:10:00,
2013-07-17 05:15:00,58.0,53.5,30.06,West,274,6.0,7.0,85,0.00,,,0.00,0002,Weather View 32 v70,2013-07-17 12:15:00,
2013-07-17 05:20:00,58.0,53.8,30.06,SW,229,3.0,7.0,86,0.00,,,0.00,0002,Weather View 32 v70,2013-07-17 12:20:00,
2013-07-17 05:25:00,58.0,53.5,30.06,SSW,207,1.0,7.0,85,0.00,,,0.00,0002,Weather View 32 v70,2013-07-17 12:25:00,
2013-07-17 05:35:00,58.0,53.5,30.06,SSE,162,0.0,7.0,85,0.00,,,0.00,0002,Weather View 32 v70,2013-07-17 12:35:00,
2013-07-17 05:40:00,57.9,53.7,30.06,South,184,6.0,7.0,86,0.00,,,0.00,0002,Weather View 32 v70,2013-07-17 12:40:00,
2013-07-17 05:45:00,57.9,53.7,30.06,West,274,3.0,7.0,86,0.00,,,0.00,0002,Weather View 32 v70,2013-07-17 12:45:00,
2013-07-17 05:50:00,58.0,53.8,30.06,ENE,72,0.0,7.0,86,0.00,,,0.00,0002,Weather View 32 v70,2013-07-17 12:50:00,
2013-07-17 06:00:00,58.0,53.8,30.07,ESE,117,0.0,7.0,86,0.00,,,0.00,0003,Weather View 32 v70,2013-07-17 13:00:00,
2013-07-17 06:10:00,58.0,53.8,30.07,ENE,72,0.0,7.0,86,0.00,,,0.00,0005,Weather View 32 v70,2013-07-17 13:10:00,
2013-07-17 06:15:00,58.1,53.9,30.07,ESE,117,0.0,7.0,86,0.00,,,0.00,0007,Weather View 32 v70,2013-07-17 13:15:00,
2013-07-17 06:25:00,58.1,53.9,30.07,SSE,162,1.0,7.0,86,0.00,,,0.00,0011,Weather View 32 v70,2013-07-17 13:25:00,
2013-07-17 06:30:00,58.1,53.9,30.07,South,184,3.0,7.0,86,0.00,,,0.00,0013,Weather View 32 v70,2013-07-17 13:30:00,
2013-07-17 06:35:00,58.2,53.7,30.07,South,184,1.0,7.0,85,0.00,,,0.00,0015,Weather View 32 v70,2013-07-17 13:35:00,
2013-07-17 06:40:00,58.2,54.0,30.07,WNW,297,3.0,7.0,86,0.00,,,0.00,0018,Weather View 32 v70,2013-07-17 13:40:00,
2013-07-17 06:50:00,58.2,53.7,30.07,ESE,117,1.0,5.0,85,0.00,,,0.00,0025,Weather View 32 v70,2013-07-17 13:50:00,
2013-07-17 06:55:00,58.2,53.7,30.07,South,184,0.0,5.0,85,0.00,,,0.00,0029,Weather View 32 v70,2013-07-17 13:55:00,
2013-07-17 07:00:00,58.3,53.8,30.07,East,94,1.0,5.0,85,0.00,,,0.00,0033,Weather View 32 v70,2013-07-17 14:00:00,
2013-07-17 07:05:00,58.4,53.9,30.07,ESE,117,1.0,5.0,85,0.00,,,0.00,0035,Weather View 32 v70,2013-07-17 14:05:00,
2013-07-17 07:10:00,58.4,53.9,30.08,SE,139,0.0,5.0,85,0.00,,,0.00,0037,Weather View 32 v70,2013-07-17 14:10:00,
2013-07-17 07:20:00,58.2,53.7,30.08,ESE,117,1.0,7.0,85,0.00,,,0.00,0047,Weather View 32 v70,2013-07-17 14:20:00,
2013-07-17 07:25:00,58.4,53.9,30.08,SW,229,1.0,7.0,85,0.00,,,0.00,0051,Weather View 32 v70,2013-07-17 14:25:00,
2013-07-17 07:30:00,58.3,53.8,30.08,WNW,297,4.0,7.0,85,0.00,,,0.00,0058,Weather View 32 v70,2013-07-17 14:30:00,
2013-07-17 07:35:00,58.3,54.1,30.09,WNW,297,6.0,7.0,86,0.00,,,0.00,0060,Weather View 32 v70,2013-07-17 14:35:00,
2013-07-17 07:45:00,58.3,54.1,30.09,NNE,27,2.0,7.0,86,0.00,,,0.00,0071,Weather View 32 v70,2013-07-17 14:45:00,
2013-07-17 07:54:00,58.5,54.3,30.09,NNW,342,3.0,7.0,86,0.00,,,0.00,0069,Weather View 32 v70,2013-07-17 14:54:00,
2013-07-17 08:00:00,58.6,54.4,30.09,WNW,297,3.0,7.0,86,0.00,,,0.00,0079,Weather View 32 v70,2013-07-17 15:00:00,
2013-07-17 08:05:00,58.7,54.5,30.09,West,274,1.0,7.0,86,0.00,,,0.00,0081,Weather View 32 v70,2013-07-17 15:05:00,
2013-07-17 08:10:00,58.6,54.4,30.10,NNW,342,3.0,7.0,86,0.00,,,0.00,0080,Weather View 32 v70,2013-07-17 15:10:00,
2013-07-17 08:20:00,58.8,54.6,30.10,South,184,0.0,7.0,86,0.00,,,0.00,0094,Weather View 32 v70,2013-07-17 15:20:00,
2013-07-17 08:25:00,59.0,54.5,30.10,ESE,117,0.0,7.0,85,0.00,,,0.00,0093,Weather View 32 v70,2013-07-17 15:25:00,
2013-07-17 08:30:00,58.5,54.0,30.10,NW,319,4.0,7.0,85,0.00,,,0.00,0101,Weather View 32 v70,2013-07-17 15:30:00,
2013-07-17 08:35:00,58.6,54.4,30.10,SW,229,3.0,7.0,86,0.00,,,0.00,0116,Weather View 32 v70,2013-07-17 15:35:00,
2013-07-17 08:45:00,58.9,54.4,30.10,WSW,252,5.0,9.0,85,0.00,,,0.00,0125,Weather View 32 v70,2013-07-17 15:45:00,
2013-07-17 08:50:00,58.8,54.3,30.10,WNW,297,4.0,9.0,85,0.00,,,0.00,0139,Weather View 32 v70,2013-07-17 15:50:00,
2013-07-17 08:55:00,59.0,54.5,30.10,West,274,4.0,9.0,85,0.00,,,0.00,0151,Weather View 32 v70,2013-07-17 15:55:00,
2013-07-17 09:00:00,59.1,54.3,30.10,WSW,252,3.0,9.0,84,0.00,,,0.00,0155,Weather View 32 v70,2013-07-17 16:00:00,
2013-07-17 09:10:00,59.2,54.4,30.11,NW,319,4.0,9.0,84,0.00,,,0.00,0176,Weather View 32 v70,2013-07-17 16:10:00,
2013-07-17 09:15:00,59.4,54.2,30.11,SW,229,2.0,9.0,83,0.00,,,0.00,0197,Weather View 32 v70,2013-07-17 16:15:00,
2013-07-17 09:20:00,59.4,54.2,30.11,NNW,342,1.0,9.0,83,0.00,,,0.00,0219,Weather View 32 v70,2013-07-17 16:20:00,
2013-07-17 09:25:00,59.7,54.5,30.11,NW,319,1.0,9.0,83,0.00,,,0.00,0213,Weather View 32 v70,2013-07-17 16:25:00,
2013-07-17 09:30:00,60.1,54.6,30.11,NW,319,3.0,9.0,82,0.00,,,0.00,0228,Weather View 32 v70,2013-07-17 16:30:00,
2013-07-17 09:40:00,60.5,54.3,30.11,West,274,4.0,9.0,80,0.00,,,0.00,0260,Weather View 32 v70,2013-07-17 16:40:00,
2013-07-17 09:45:00,60.9,54.7,30.11,WNW,297,1.0,9.0,80,0.00,,,0.00,0304,Weather View 32 v70,2013-07-17 16:45:00,
2013-07-17 09:50:00,61.3,54.7,30.11,SE,139,2.0,9.0,79,0.00,,,0.00,0349,Weather View 32 v70,2013-07-17 16:50:00,
2013-07-17 09:55:00,61.9,55.3,30.11,NNW,342,1.0,9.0,79,0.00,,,0.00,0376,Weather View 32 v70,2013-07-17 16:55:00,
2013-07-17 10:05:00,62.3,54.3,30.11,WNW,297,3.0,9.0,75,0.00,,,0.00,0438,Weather View 32 v70,2013-07-17 17:05:00,
2013-07-17 10:10:00,62.4,54.3,30.10,SSE,162,1.0,9.0,75,0.00,,,0.00,0810,Weather View 32 v70,2013-07-17 17:10:00,
2013-07-17 10:15:00,62.9,54.8,30.10,NNE,27,3.0,9.0,75,0.00,,,0.00,0650,Weather View 32 v70,2013-07-17 17:15:00,
2013-07-17 10:25:00,64.0,54.8,30.10,NNE,27,5.0,7.0,72,0.00,,,0.00,0692,Weather View 32 v70,2013-07-17 17:25:00,
2013-07-17 10:30:00,65.0,55.7,30.10,ESE,117,3.0,7.0,72,0.00,,,0.00,0700,Weather View 32 v70,2013-07-17 17:30:00,
2013-07-17 10:35:00,65.6,55.5,30.10,NNW,342,3.0,6.0,70,0.00,,,0.00,0707,Weather View 32 v70,2013-07-17 17:35:00,
2013-07-17 10:40:00,65.8,55.3,30.10,NNE,27,2.0,7.0,69,0.00,,,0.00,0717,Weather View 32 v70,2013-07-17 17:40:00,
2013-07-17 10:45:00,65.6,54.7,30.10,NNE,27,3.0,7.0,68,0.00,,,0.00,0724,Weather View 32 v70,2013-07-17 17:45:00,
2013-07-17 10:55:00,65.6,54.3,30.10,SSE,162,3.0,7.0,67,0.00,,,0.00,0740,Weather View 32 v70,2013-07-17 17:55:00,
2013-07-17 11:00:00,65.9,54.6,30.09,ENE,72,1.0,7.0,67,0.00,,,0.00,0748,Weather View 32 v70,2013-07-17 18:00:00,
2013-07-17 11:05:00,66.4,55.1,30.10,ESE,117,3.0,8.0,67,0.00,,,0.00,0754,Weather View 32 v70,2013-07-17 18:05:00,
2013-07-17 11:10:00,67.3,55.9,30.09,NE,49,3.0,8.0,67,0.00,,,0.00,0761,Weather View 32 v70,2013-07-17 18:10:00,
2013-07-17 11:15:00,67.4,55.2,30.09,East,94,3.0,8.0,65,0.00,,,0.00,0768,Weather View 32 v70,2013-07-17 18:15:00,
2013-07-17 11:25:00,67.5,54.9,30.09,ESE,117,7.0,8.0,64,0.00,,,0.00,0778,Weather View 32 v70,2013-07-17 18:25:00,
2013-07-17 11:30:00,67.7,54.6,30.09,SE,139,4.0,8.0,63,0.00,,,0.00,0784,Weather View 32 v70,2013-07-17 18:30:00,
2013-07-17 11:35:00,68.3,55.2,30.09,ESE,117,3.0,8.0,63,0.00,,,0.00,0787,Weather View 32 v70,2013-07-17 18:35:00,
2013-07-17 11:40:00,68.2,54.6,30.09,SSE,162,4.0,8.0,62,0.00,,,0.00,0792,Weather View 32 v70,2013-07-17 18:40:00,
2013-07-17 11:50:00,69.3,54.8,30.09,SE,139,4.0,8.0,60,0.00,,,0.00,0800,Weather View 32 v70,2013-07-17 18:50:00,
2013-07-17 11:55:00,69.9,55.3,30.09,East,94,3.0,8.0,60,0.00,,,0.00,0804,Weather View 32 v70,2013-07-17 18:55:00,
2013-07-17 12:00:00,69.6,54.6,30.08,ESE,117,2.0,9.0,59,0.00,,,0.00,0809,Weather View 32 v70,2013-07-17 19:00:00,
2013-07-17 12:05:00,70.4,55.3,30.08,South,184,3.0,9.0,59,0.00,,,0.00,0813,Weather View 32 v70,2013-07-17 19:05:00,
2013-07-17 12:10:00,71.4,55.8,30.08,East,94,3.0,9.0,58,0.00,,,0.00,0819,Weather View 32 v70,2013-07-17 19:10:00,
2013-07-17 12:15:00,72.0,55.4,30.08,SE,139,6.0,9.0,56,0.00,,,0.00,0822,Weather View 32 v70,2013-07-17 19:15:00,
2013-07-17 12:25:00,72.3,55.7,30.08,South,184,5.0,9.0,56,0.00,,,0.00,0833,Weather View 32 v70,2013-07-17 19:25:00,
2013-07-17 12:30:00,72.4,54.8,30.08,SE,139,6.0,9.0,54,0.00,,,0.00,0838,Weather View 32 v70,2013-07-17 19:30:00,
2013-07-17 12:35:00,73.4,55.7,30.08,NE,49,4.0,9.0,54,0.00,,,0.00,0843,Weather View 32 v70,2013-07-17 19:35:00,
2013-07-17 12:40:00,73.5,55.3,30.08,East,94,6.0,9.0,53,0.00,,,0.00,0848,Weather View 32 v70,2013-07-17 19:40:00,
2013-07-17 12:45:00,74.0,55.7,30.07,ENE,72,2.0,9.0,53,0.00,,,0.00,0855,Weather View 32 v70,2013-07-17 19:45:00,
2013-07-17 12:55:00,74.3,54.4,30.07,NNW,342,9.0,11.0,50,0.00,,,0.00,0863,Weather View 32 v70,2013-07-17 19:55:00,
2013-07-17 13:00:00,74.3,54.9,30.07,WNW,297,10.0,11.0,51,0.00,,,0.00,0867,Weather View 32 v70,2013-07-17 20:00:00,
2013-07-17 13:05:00,75.0,56.1,30.07,NW,319,4.0,11.0,52,0.00,,,0.00,0869,Weather View 32 v70,2013-07-17 20:05:00,
2013-07-17 13:10:00,74.2,54.3,30.07,NNW,342,9.0,13.0,50,0.00,,,0.00,0870,Weather View 32 v70,2013-07-17 20:10:00,
2013-07-17 13:20:00,74.9,54.9,30.07,NNE,27,8.0,13.0,50,0.00,,,0.00,0876,Weather View 32 v70,2013-07-17 20:20:00,
2013-07-17 13:25:00,75.5,55.5,30.07,NNW,342,6.0,13.0,50,0.00,,,0.00,0876,Weather View 32 v70,2013-07-17 20:25:00,
2013-07-17 13:30:00,75.9,55.9,30.07,NNE,27,6.0,13.0,50,0.00,,,0.00,0878,Weather View 32 v70,2013-07-17 20:30:00,
2013-07-17 13:35:00,76.4,55.8,30.06,NNE,27,5.0,13.0,49,0.00,,,0.00,0878,Weather View 32 v70,2013-07-17 20:35:00,
2013-07-17 13:40:00,76.6,55.9,30.06,ESE,117,2.0,13.0,49,0.00,,,0.00,0877,Weather View 32 v70,2013-07-17 20:40:00,
2013-07-17 13:50:00,77.3,55.4,30.06,WNW,297,5.0,13.0,47,0.00,,,0.00,0871,Weather View 32 v70,2013-07-17 20:50:00,
2013-07-17 13:55:00,78.3,56.9,30.06,NNW,342,3.0,13.0,48,0.00,,,0.00,0867,Weather View 32 v70,2013-07-17 20:55:00,
2013-07-17 14:00:00,78.3,56.3,30.06,NE,49,4.0,13.0,47,0.00,,,0.00,0863,Weather View 32 v70,2013-07-17 21:00:00,
2013-07-17 14:05:00,78.4,55.8,30.06,NNE,27,4.0,13.0,46,0.00,,,0.00,0858,Weather View 32 v70,2013-07-17 21:05:00,
2013-07-17 14:10:00,78.1,55.6,30.06,NW,319,8.0,13.0,46,0.00,,,0.00,0849,Weather View 32 v70,2013-07-17 21:10:00,
2013-07-17 14:15:00,77.9,54.8,30.06,North,4,6.0,12.0,45,0.00,,,0.00,0841,Weather View 32 v70,2013-07-17 21:15:00,
2013-07-17 14:25:00,79.1,55.9,30.05,North,4,4.0,11.0,45,0.00,,,0.00,0828,Weather View 32 v70,2013-07-17 21:25:00,
2013-07-17 14:30:00,79.2,56.0,30.05,North,4,4.0,10.0,45,0.00,,,0.00,0821,Weather View 32 v70,2013-07-17 21:30:00,
2013-07-17 14:40:00,78.9,54.4,30.05,NE,49,6.0,10.0,43,0.00,,,0.00,0800,Weather View 32 v70,2013-07-17 21:40:00,
2013-07-17 14:50:00,80.6,56.0,30.05,East,94,4.0,10.0,43,0.00,,,0.00,0782,Weather View 32 v70,2013-07-17 21:50:00,
2013-07-17 14:55:00,80.5,55.2,30.04,NNW,342,3.0,10.0,42,0.00,,,0.00,0774,Weather View 32 v70,2013-07-17 21:55:00,
2013-07-17 15:00:00,80.8,55.5,30.04,SE,139,6.0,10.0,42,0.00,,,0.00,0768,Weather View 32 v70,2013-07-17 22:00:00,
2013-07-17 15:05:00,80.6,55.3,30.04,SE,139,3.0,10.0,42,0.00,,,0.00,0760,Weather View 32 v70,2013-07-17 22:05:00,
2013-07-17 15:10:00,81.2,55.8,30.04,SSW,207,3.0,10.0,42,0.00,,,0.00,0759,Weather View 32 v70,2013-07-17 22:10:00,
2013-07-17 15:20:00,81.4,54.7,30.04,SW,229,4.0,9.0,40,0.00,,,0.00,0740,Weather View 32 v70,2013-07-17 22:20:00,
2013-07-17 15:25:00,81.1,53.0,30.04,West,274,5.0,9.0,38,0.00,,,0.00,0733,Weather View 32 v70,2013-07-17 22:25:00,
2013-07-17 15:30:00,80.4,52.4,30.04,West,274,5.0,11.0,38,0.00,,,0.00,0726,Weather View 32 v70,2013-07-17 22:30:00,
2013-07-17 15:35:00,80.5,53.2,30.04,West,274,4.0,11.0,39,0.00,,,0.00,0721,Weather View 32 v70,2013-07-17 22:35:00,
2013-07-17 15:40:00,80.3,51.6,30.04,SW,229,9.0,13.0,37,0.00,,,0.00,0714,Weather View 32 v70,2013-07-17 22:40:00,
2013-07-17 15:50:00,81.1,51.5,30.04,SSW,207,7.0,13.0,36,0.00,,,0.00,0700,Weather View 32 v70,2013-07-17 22:50:00,
2013-07-17 15:55:00,81.1,51.5,30.03,SSW,207,5.0,13.0,36,0.00,,,0.00,0692,Weather View 32 v70,2013-07-17 22:55:00,
2013-07-17 16:00:00,81.2,51.6,30.03,SW,229,8.0,13.0,36,0.00,,,0.00,0686,Weather View 32 v70,2013-07-17 23:00:00,
2013-07-17 16:05:00,80.9,50.6,30.03,SSW,207,11.0,13.0,35,0.00,,,0.00,0679,Weather View 32 v70,2013-07-17 23:05:00,
2013-07-17 16:10:00,81.3,51.7,30.03,SSW,207,3.0,13.0,36,0.00,,,0.00,0672,Weather View 32 v70,2013-07-17 23:10:00,
2013-07-17 16:20:00,80.9,49.0,30.03,SSW,207,6.0,14.0,33,0.00,,,0.00,0656,Weather View 32 v70,2013-07-17 23:20:00,
2013-07-17 16:25:00,81.0,49.1,30.03,WSW,252,9.0,14.0,33,0.00,,,0.00,0649,Weather View 32 v70,2013-07-17 23:25:00,
2013-07-17 16:30:00,80.7,48.8,30.02,SSW,207,9.0,14.0,33,0.00,,,0.00,0640,Weather View 32 v70,2013-07-17 23:30:00,
2013-07-17 16:35:00,81.1,50.0,30.02,SSW,207,6.0,14.0,34,0.00,,,0.00,0629,Weather View 32 v70,2013-07-17 23:35:00,
2013-07-17 16:40:00,80.9,49.8,30.02,SW,229,7.0,14.0,34,0.00,,,0.00,0618,Weather View 32 v70,2013-07-17 23:40:00,
2013-07-17 16:50:00,80.6,48.7,30.02,WSW,252,12.0,14.0,33,0.00,,,0.00,0596,Weather View 32 v70,2013-07-17 23:50:00,
2013-07-17 16:55:00,80.1,50.7,30.02,SSW,207,9.0,15.0,36,0.00,,,0.00,0583,Weather View 32 v70,2013-07-17 23:55:00,
2013-07-17 17:00:00,79.7,50.3,30.02,SSW,207,9.0,15.0,36,0.00,,,0.00,0571,Weather View 32 v70,2013-07-18 00:00:00,
2013-07-17 17:05:00,79.7,50.3,30.02,SSW,207,9.0,15.0,36,0.00,,,0.00,0561,Weather View 32 v70,2013-07-18 00:05:00,
2013-07-17 17:10:00,79.7,51.0,30.02,WSW,252,9.0,15.0,37,0.00,,,0.00,0548,Weather View 32 v70,2013-07-18 00:10:00,
2013-07-17 17:20:00,79.7,50.3,30.02,SW,229,7.0,16.0,36,0.00,,,0.00,0521,Weather View 32 v70,2013-07-18 00:20:00,
2013-07-17 17:25:00,79.8,51.1,30.02,SW,229,8.0,16.0,37,0.00,,,0.00,0510,Weather View 32 v70,2013-07-18 00:25:00,
2013-07-17 17:30:00,79.8,49.6,30.02,SW,229,7.0,16.0,35,0.00,,,0.00,0496,Weather View 32 v70,2013-07-18 00:30:00,
2013-07-17 17:35:00,80.2,50.0,30.02,SSW,207,6.0,16.0,35,0.00,,,0.00,0484,Weather View 32 v70,2013-07-18 00:35:00,
2013-07-17 17:40:00,80.3,49.3,30.01,SW,229,7.0,16.0,34,0.00,,,0.00,0471,Weather View 32 v70,2013-07-18 00:40:00,
2013-07-17 17:50:00,80.1,48.3,30.01,WSW,252,7.0,16.0,33,0.00,,,0.00,0441,Weather View 32 v70,2013-07-18 00:50:00,
2013-07-17 17:55:00,80.0,49.0,30.01,SW,229,7.0,16.0,34,0.00,,,0.00,0430,Weather View 32 v70,2013-07-18 00:55:00,
2013-07-17 18:00:00,80.2,47.6,30.01,SW,229,9.0,16.0,32,0.00,,,0.00,0416,Weather View 32 v70,2013-07-18 01:00:00,
2013-07-17 18:10:00,80.4,47.7,30.01,SW,229,6.0,16.0,32,0.00,,,0.00,0394,Weather View 32 v70,2013-07-18 01:10:00,
2013-07-17 18:15:00,80.1,47.5,30.01,SSW,207,3.0,16.0,32,0.00,,,0.00,0381,Weather View 32 v70,2013-07-18 01:15:00,
2013-07-17 18:20:00,79.8,48.8,30.01,South,184,8.0,12.0,34,0.00,,,0.00,0369,Weather View 32 v70,2013-07-18 01:20:00,
2013-07-17 18:25:00,79.9,47.3,30.01,SSE,162,4.0,12.0,32,0.00,,,0.00,0357,Weather View 32 v70,2013-07-18 01:25:00,
2013-07-17 18:30:00,79.6,47.9,30.01,SSW,207,6.0,12.0,33,0.00,,,0.00,0343,Weather View 32 v70,2013-07-18 01:30:00,
2013-07-17 18:35:00,79.4,47.7,30.01,SW,229,7.0,12.0,33,0.00,,,0.00,0330,Weather View 32 v70,2013-07-18 01:35:00,
2013-07-17 18:40:00,79.1,48.2,30.01,South,184,4.0,12.0,34,0.00,,,0.00,0318,Weather View 32 v70,2013-07-18 01:40:00,
2013-07-17 18:50:00,78.8,48.8,30.02,SW,229,4.0,12.0,35,0.00,,,0.00,0291,Weather View 32 v70,2013-07-18 01:50:00,
2013-07-17 18:55:00,78.7,47.9,30.02,South,184,6.0,11.0,34,0.00,,,0.00,0280,Weather View 32 v70,2013-07-18 01:55:00,
2013-07-17 19:00:00,78.6,46.2,30.02,SSW,207,7.0,13.0,32,0.00,,,0.00,0267,Weather View 32 v70,2013-07-18 02:00:00,
2013-07-17 19:05:00,78.7,45.4,30.02,SSW,207,6.0,13.0,31,0.00,,,0.00,0255,Weather View 32 v70,2013-07-18 02:05:00,
2013-07-17 19:10:00,78.7,46.3,30.02,SSE,162,4.0,13.0,32,0.00,,,0.00,0241,Weather View 32 v70,2013-07-18 02:10:00,
2013-07-17 19:15:00,78.7,47.1,30.02,South,184,3.0,13.0,33,0.00,,,0.00,0229,Weather View 32 v70,2013-07-18 02:15:00,
2013-07-17 19:20:00,78.5,46.9,30.02,SSE,162,3.0,13.0,33,0.00,,,0.00,0216,Weather View 32 v70,2013-07-18 02:20:00,
2013-07-17 19:30:00,77.6,47.7,30.02,SSE,162,2.0,13.0,35,0.00,,,0.00,0188,Weather View 32 v70,2013-07-18 02:30:00,
2013-07-17 19:35:00,77.3,48.2,30.02,ESE,117,5.0,13.0,36,0.00,,,0.00,0084,Weather View 32 v70,2013-07-18 02:35:00,
2013-07-17 19:40:00,76.9,48.6,30.02,SE,139,2.0,13.0,37,0.00,,,0.00,0019,Weather View 32 v70,2013-07-18 02:40:00,
2013-07-17 19:45:00,75.8,50.3,30.02,NNW,342,1.0,13.0,41,0.00,,,0.00,0018,Weather View 32 v70,2013-07-18 02:45:00,
2013-07-17 19:50:00,75.0,51.5,30.03,NNE,27,1.0,13.0,44,0.00,,,0.00,0017,Weather View 32 v70,2013-07-18 02:50:00,
2013-07-17 19:55:00,74.5,51.1,30.03,SE,139,0.0,13.0,44,0.00,,,0.00,0016,Weather View 32 v70,2013-07-18 02:55:00,
2013-07-17 20:02:00,74.0,50.6,30.03,SE,139,0.0,11.0,44,0.00,,,0.00,0015,Weather View 32 v70,2013-07-18 03:02:00,
2013-07-17 20:10:00,72.1,51.3,30.03,SE,139,1.0,7.0,48,0.00,,,0.00,0012,Weather View 32 v70,2013-07-18 03:10:00,
2013-07-17 20:15:00,71.4,51.2,30.03,ESE,117,2.0,7.0,49,0.00,,,0.00,0010,Weather View 32 v70,2013-07-18 03:15:00,
2013-07-17 20:20:00,70.6,51.5,30.03,ESE,117,1.0,7.0,51,0.00,,,0.00,0009,Weather View 32 v70,2013-07-18 03:20:00,
2013-07-17 20:25:00,70.1,51.6,30.03,SE,139,1.0,7.0,52,0.00,,,0.00,0007,Weather View 32 v70,2013-07-18 03:25:00,
2013-07-17 20:35:00,69.0,51.6,30.03,SSE,162,0.0,5.0,54,0.00,,,0.00,0004,Weather View 32 v70,2013-07-18 03:35:00,
2013-07-17 20:40:00,68.4,51.6,30.03,SE,139,0.0,3.0,55,0.00,,,0.00,0003,Weather View 32 v70,2013-07-18 03:40:00,
2013-07-17 20:45:00,67.8,51.5,30.03,ESE,117,0.0,3.0,56,0.00,,,0.00,0002,Weather View 32 v70,2013-07-18 03:45:00,
2013-07-17 20:50:00,67.1,51.3,30.04,ESE,117,1.0,3.0,57,0.00,,,0.00,0002,Weather View 32 v70,2013-07-18 03:50:00,
2013-07-17 20:55:00,66.6,51.3,30.04,SE,139,0.0,3.0,58,0.00,,,0.00,0002,Weather View 32 v70,2013-07-18 03:55:00,
2013-07-17 21:00:00,66.2,51.4,30.04,SE,139,0.0,3.0,59,0.00,,,0.00,0002,Weather View 32 v70,2013-07-18 04:00:00,
2013-07-17 21:02:00,66.2,51.4,30.04,SE,139,0.0,3.0,59,0.00,,,0.00,0002,Weather View 32 v70,2013-07-18 04:02:00,
2013-07-17 21:05:00,65.6,51.3,30.04,NNE,27,1.0,3.0,60,0.00,,,0.00,0001,Weather View 32 v70,2013-07-18 04:05:00,
2013-07-17 21:10:00,65.2,51.4,30.04,NNE,27,0.0,3.0,61,0.00,,,0.00,0001,Weather View 32 v70,2013-07-18 04:10:00,
2013-07-17 21:15:00,64.8,51.4,30.04,SE,139,0.0,3.0,62,0.00,,,0.00,0001,Weather View 32 v70,2013-07-18 04:15:00,
2013-07-17 21:20:00,64.1,51.6,30.04,NE,49,1.0,3.0,64,0.00,,,0.00,0001,Weather View 32 v70,2013-07-18 04:20:00,
2013-07-17 21:25:00,63.8,51.8,30.04,SSE,162,0.0,3.0,65,0.00,,,0.00,0001,Weather View 32 v70,2013-07-18 04:25:00,
2013-07-17 21:30:00,63.2,51.2,30.05,SSE,162,0.0,3.0,65,0.00,,,0.00,0001,Weather View 32 v70,2013-07-18 04:30:00,
2013-07-17 21:35:00,62.6,51.1,30.05,SE,139,0.0,3.0,66,0.00,,,0.00,0001,Weather View 32 v70,2013-07-18 04:35:00,
2013-07-17 21:40:00,62.3,51.2,30.05,SE,139,0.0,3.0,67,0.00,,,0.00,0002,Weather View 32 v70,2013-07-18 04:40:00,
2013-07-17 21:50:00,61.7,51.4,30.05,South,184,0.0,3.0,69,0.00,,,0.00,0002,Weather View 32 v70,2013-07-18 04:50:00,
2013-07-17 21:55:00,61.6,51.3,30.05,SE,139,0.0,3.0,69,0.00,,,0.00,0001,Weather View 32 v70,2013-07-18 04:55:00,
2013-07-17 22:00:00,61.3,51.4,30.06,SSE,162,0.0,3.0,70,0.00,,,0.00,0001,Weather View 32 v70,2013-07-18 05:00:00,
2013-07-17 22:05:00,61.0,51.1,30.06,SSE,162,0.0,3.0,70,0.00,,,0.00,0001,Weather View 32 v70,2013-07-18 05:05:00,
2013-07-17 22:10:00,60.7,51.2,30.06,South,184,0.0,3.0,71,0.00,,,0.00,0001,Weather View 32 v70,2013-07-18 05:10:00,
2013-07-17 22:20:00,60.3,51.2,30.06,SSE,162,0.0,2.0,72,0.00,,,0.00,0001,Weather View 32 v70,2013-07-18 05:20:00,
2013-07-17 22:30:00,60.1,51.4,30.06,SSW,207,0.0,1.0,73,0.00,,,0.00,0001,Weather View 32 v70,2013-07-18 05:30:00,
2013-07-17 22:35:00,60.0,51.3,30.06,SSW,207,0.0,0.0,73,0.00,,,0.00,0002,Weather View 32 v70,2013-07-18 05:35:00,
2013-07-17 22:40:00,59.8,51.1,30.06,ESE,117,0.0,0.0,73,0.00,,,0.00,0002,Weather View 32 v70,2013-07-18 05:40:00,
2013-07-17 22:45:00,59.6,51.3,30.06,ESE,117,0.0,0.0,74,0.00,,,0.00,0001,Weather View 32 v70,2013-07-18 05:45:00,
2013-07-17 22:55:00,59.1,51.2,30.07,SE,139,0.0,0.0,75,0.00,,,0.00,0001,Weather View 32 v70,2013-07-18 05:55:00,
2013-07-17 23:00:00,59.0,51.4,30.07,ESE,117,0.0,0.0,76,0.00,,,0.00,0001,Weather View 32 v70,2013-07-18 06:00:00,
2013-07-17 23:05:00,58.7,51.1,30.07,South,184,0.0,0.0,76,0.00,,,0.00,0001,Weather View 32 v70,2013-07-18 06:05:00,
2013-07-17 23:10:00,58.6,51.4,30.07,SSW,207,0.0,0.0,77,0.00,,,0.00,0001,Weather View 32 v70,2013-07-18 06:10:00,
2013-07-17 23:15:00,58.5,51.3,30.07,SSE,162,0.0,0.0,77,0.00,,,0.00,0001,Weather View 32 v70,2013-07-18 06:15:00,
2013-07-17 23:25:00,58.0,51.2,30.07,South,184,0.0,0.0,78,0.00,,,0.00,0001,Weather View 32 v70,2013-07-18 06:25:00,
2013-07-17 23:30:00,57.9,51.1,30.07,South,184,0.0,0.0,78,0.00,,,0.00,0001,Weather View 32 v70,2013-07-18 06:30:00,
2013-07-17 23:35:00,57.5,50.7,30.07,South,184,0.0,0.0,78,0.00,,,0.00,0001,Weather View 32 v70,2013-07-18 06:35:00,
2013-07-17 23:40:00,57.4,50.9,30.07,SSW,207,0.0,0.0,79,0.00,,,0.00,0001,Weather View 32 v70,2013-07-18 06:40:00,
2013-07-17 23:45:00,57.3,51.2,30.07,ESE,117,0.0,0.0,80,0.00,,,0.00,0002,Weather View 32 v70,2013-07-18 06:45:00,
2013-07-17 23:50:00,57.2,51.1,30.07,SSW,207,0.0,0.0,80,0.00,,,0.00,0001,Weather View 32 v70,2013-07-18 06:50:00,